{"data":{"norad_id":50183,"intl_designator":"2021-125AD","name":"STARLINK-3281","alt_names":[],"object_type":"PAYLOAD","status":"ACTIVE","operator":null,"country":"US","launch_date":"2021-12-18","launch_site_code":"AFWTR","launch_vehicle":null,"mission":null,"orbit_class":"UNKNOWN","rcs_meters":null,"size_class":null,"mass_kg":null,"dimensions":null,"purposes":["comms"],"wikipedia_slug":null,"has_3d_model":false,"image_url":null,"decayed_at":null,"tle_current":{"epoch":"2026-09-20T03:25:02.585856Z","epoch_age_seconds":75632,"freshness":"FRESH","line1":"1 50183U 21125AD  26263.14239104  .00013243  00000+0  79692-3 0  9999","line2":"2 50183  53.1591  94.7986 0002667 104.5890 255.5398 15.11138335266017","mean_motion":15.11138335,"eccentricity":0.0002667,"inclination_deg":53.1591,"raan_deg":94.7986,"arg_perigee_deg":104.589,"mean_anomaly_deg":255.5398,"bstar":0.00079692,"rev_number":26601,"period_min":95.292400877382,"perigee_km":530.88407624457,"apogee_km":534.57033121084,"semimajor_km":6910.8642037277,"source":"CELESTRAK","updated_at":"2026-09-20T09:00:39.417352Z"}}}